| time (UTC) | temp F | wind direction | speed MPH | gust MPH | rain 1hr in | rain 24hr in | rain mn in | humidity % | barometer mb |
| 20260507135018 | 47 | 250 | 5.0 | 8.0 | 0.00 | 0.00 | 0.00 | 61 | 1018.4 |
| 20260507134615 | 46 | 254 | 4.0 | 7.0 | 0.00 | 0.00 | 0.00 | 64 | 1018.5 |
| 20260507134020 | 44 | 266 | 4.0 | 8.0 | 0.00 | 0.00 | 0.00 | 67 | 1018.3 |
| 20260507133516 | 43 | 297 | 5.0 | 8.0 | 0.00 | 0.00 | 0.00 | 69 | 1018.4 |
| 20260507133051 | 43 | 267 | 4.0 | 8.0 | 0.00 | 0.00 | 0.00 | 69 | 1018.4 |
| 20260507132626 | 43 | 256 | 4.0 | 10.0 | 0.00 | 0.00 | 0.00 | 69 | 1018.3 |
| 20260507132017 | 44 | 308 | 4.0 | 8.0 | 0.00 | 0.00 | 0.00 | 68 | 1018.4 |
| 20260507131611 | 44 | 290 | 3.0 | 7.0 | 0.00 | 0.00 | 0.00 | 67 | 1018.3 |
| 20260507131019 | 44 | 254 | 4.0 | 7.0 | 0.00 | 0.00 | 0.00 | 66 | 1018.1 |
| 20260507130516 | 43 | 279 | 4.0 | 8.0 | 0.00 | 0.00 | 0.00 | 67 | 1018.1 |
| 20260507130050 | 43 | 296 | 4.0 | 8.0 | 0.00 | 0.00 | 0.00 | 67 | 1018.3 |
| 20260507125521 | 44 | 248 | 5.0 | 9.0 | 0.00 | 0.00 | 0.00 | 66 | 1018.1 |
| 20260507125034 | 43 | 254 | 5.0 | 8.0 | 0.00 | 0.00 | 0.00 | 66 | 1018.1 |
| 20260507124548 | 43 | 255 | 5.0 | 9.0 | 0.00 | 0.00 | 0.00 | 67 | 1018.2 |
| 20260507124015 | 43 | 244 | 6.0 | 9.0 | 0.00 | 0.00 | 0.00 | 68 | 1018.3 |
| 20260507123633 | 43 | 253 | 5.0 | 10.0 | 0.00 | 0.00 | 0.00 | 68 | 1018.3 |
| 20260507123129 | 42 | 250 | 6.0 | 10.0 | 0.00 | 0.00 | 0.00 | 68 | 1018.3 |
| 20260507122519 | 42 | 227 | 5.0 | 9.0 | 0.00 | 0.00 | 0.00 | 68 | 1018.2 |
| 20260507122017 | 42 | 240 | 5.0 | 11.0 | 0.00 | 0.00 | 0.00 | 69 | 1018.3 |
| 20260507121547 | 42 | 229 | 5.0 | 11.0 | 0.00 | 0.00 | 0.00 | 68 | 1018.1 |
| 20260507121016 | 43 | 240 | 5.0 | 10.0 | 0.00 | 0.00 | 0.00 | 68 | 1018.2 |
| 20260507120516 | 43 | 242 | 5.0 | 11.0 | 0.00 | 0.00 | 0.00 | 68 | 1018.2 |
| 20260507120048 | 43 | 234 | 5.0 | 8.0 | 0.00 | 0.00 | 0.00 | 68 | 1018.2 |
| 20260507115517 | 43 | 213 | 5.0 | 8.0 | 0.00 | 0.00 | 0.00 | 67 | 1018.2 |
| 20260507115016 | 43 | 240 | 5.0 | 10.0 | 0.00 | 0.00 | 0.00 | 67 | 1018.3 |
| 20260507114946 | 43 | 220 | 6.0 | 11.0 | 0.00 | 0.00 | 0.00 | 66 | 1018.3 |
| 20260507114026 | 43 | 238 | 6.0 | 11.0 | 0.00 | 0.00 | 0.00 | 66 | 1018.4 |
| 20260507113516 | 43 | 232 | 5.0 | 10.0 | 0.00 | 0.00 | 0.00 | 66 | 1018.3 |
| 20260507113045 | 43 | 210 | 6.0 | 10.0 | 0.00 | 0.00 | 0.00 | 67 | 1018.1 |
| 20260507112515 | 43 | 223 | 6.0 | 9.0 | 0.00 | 0.00 | 0.00 | 67 | 1018.1 |
| 20260507112016 | 43 | 219 | 5.0 | 17.0 | 0.00 | 0.00 | 0.00 | 67 | 1018.1 |
| 20260507111547 | 43 | 238 | 9.0 | 17.0 | 0.00 | 0.00 | 0.00 | 67 | 1017.9 |
| 20260507111015 | 44 | 240 | 7.0 | 13.0 | 0.00 | 0.00 | 0.00 | 65 | 1018.1 |
| 20260507110515 | 44 | 229 | 5.0 | 13.0 | 0.00 | 0.00 | 0.00 | 64 | 1018.1 |
| 20260507110052 | 44 | 246 | 4.0 | 8.0 | 0.00 | 0.00 | 0.00 | 63 | 1017.9 |
| 20260507105516 | 44 | 281 | 5.0 | 10.0 | 0.00 | 0.00 | 0.00 | 61 | 1017.9 |
| 20260507105016 | 45 | 252 | 7.0 | 11.0 | 0.00 | 0.00 | 0.00 | 61 | 1017.9 |
| 20260507104935 | 44 | 270 | 7.0 | 15.0 | 0.00 | 0.00 | 0.00 | 61 | 1017.9 |
| 20260507104016 | 45 | 252 | 8.0 | 15.0 | 0.00 | 0.00 | 0.00 | 60 | 1017.6 |
| 20260507103516 | 44 | 241 | 7.0 | 10.0 | 0.00 | 0.00 | 0.00 | 61 | 1017.8 |
| 20260507103058 | 45 | 229 | 6.0 | 12.0 | 0.00 | 0.00 | 0.00 | 60 | 1017.7 |
| 20260507102516 | 44 | 242 | 7.0 | 12.0 | 0.00 | 0.00 | 0.00 | 61 | 1017.9 |
| 20260507102016 | 44 | 259 | 8.0 | 11.0 | 0.00 | 0.00 | 0.00 | 62 | 1017.9 |
| 20260507101601 | 45 | 250 | 6.0 | 10.0 | 0.00 | 0.00 | 0.00 | 61 | 1017.9 |
| 20260507101015 | 45 | 218 | 6.0 | 10.0 | 0.00 | 0.00 | 0.00 | 60 | 1017.8 |
| 20260507100515 | 44 | 242 | 7.0 | 9.0 | 0.00 | 0.00 | 0.00 | 60 | 1018.0 |
| 20260507100434 | 45 | 240 | 5.0 | 10.0 | 0.00 | 0.00 | 0.00 | 59 | 1017.9 |
| 20260507095516 | 45 | 240 | 5.0 | 10.0 | 0.00 | 0.00 | 0.00 | 56 | 1017.9 |
| 20260507095020 | 45 | 237 | 6.0 | 13.0 | 0.00 | 0.00 | 0.00 | 58 | 1017.8 |
| 20260507094020 | 45 | 213 | 7.0 | 10.0 | 0.00 | 0.00 | 0.00 | 56 | 1017.6 |
| 20260507093520 | 45 | 236 | 6.0 | 9.0 | 0.00 | 0.00 | 0.00 | 57 | 1017.8 |
| 20260507093113 | 46 | 248 | 6.0 | 10.0 | 0.00 | 0.00 | 0.00 | 55 | 1017.8 |
| 20260507092518 | 46 | 234 | 5.0 | 11.0 | 0.00 | 0.00 | 0.00 | 54 | 1017.6 |
| 20260507092021 | 46 | 255 | 5.0 | 11.0 | 0.00 | 0.00 | 0.00 | 53 | 1017.4 |
| 20260507091551 | 46 | 220 | 6.0 | 12.0 | 0.00 | 0.00 | 0.00 | 53 | 1017.3 |
| 20260507091019 | 47 | 240 | 7.0 | 12.0 | 0.00 | 0.00 | 0.00 | 52 | 1017.2 |
| 20260507090518 | 47 | 245 | 9.0 | 13.0 | 0.00 | 0.00 | 0.00 | 54 | 1017.1 |
| 20260507090059 | 47 | 260 | 9.0 | 13.0 | 0.00 | 0.00 | 0.00 | 53 | 1017.1 |
| 20260507085520 | 47 | 234 | 8.0 | 12.0 | 0.00 | 0.00 | 0.00 | 53 | 1017.2 |
| 20260507085019 | 47 | 217 | 7.0 | 11.0 | 0.00 | 0.00 | 0.00 | 53 | 1017.3 |
| 20260507084553 | 47 | 213 | 7.0 | 13.0 | 0.00 | 0.00 | 0.00 | 52 | 1017.3 |
| 20260507084016 | 47 | 238 | 8.0 | 13.0 | 0.00 | 0.00 | 0.00 | 51 | 1017.1 |
| 20260507083516 | 47 | 217 | 10.0 | 14.0 | 0.00 | 0.00 | 0.00 | 52 | 1017.0 |
| 20260507083050 | 47 | 227 | 9.0 | 13.0 | 0.00 | 0.00 | 0.00 | 51 | 1016.9 |
| 20260507082517 | 47 | 242 | 11.0 | 18.0 | 0.00 | 0.00 | 0.00 | 51 | 1016.8 |
| 20260507082016 | 47 | 239 | 12.0 | 18.0 | 0.00 | 0.00 | 0.00 | 52 | 1016.9 |
| 20260507081553 | 46 | 215 | 12.0 | 18.0 | 0.00 | 0.00 | 0.00 | 55 | 1016.6 |
| 20260507081020 | 47 | 236 | 11.0 | 18.0 | 0.00 | 0.00 | 0.00 | 54 | 1017.0 |
| 20260507080518 | 47 | 254 | 9.0 | 16.0 | 0.00 | 0.00 | 0.00 | 54 | 1017.1 |
| 20260507080117 | 47 | 229 | 9.0 | 15.0 | 0.00 | 0.00 | 0.00 | 55 | 1017.3 |
| 20260507075521 | 47 | 231 | 9.0 | 21.0 | 0.00 | 0.00 | 0.00 | 54 | 1017.2 |
| 20260507075017 | 47 | 209 | 10.0 | 21.0 | 0.00 | 0.00 | 0.00 | 53 | 1016.9 |
| 20260507074551 | 48 | 229 | 10.0 | 20.0 | 0.00 | 0.00 | 0.00 | 54 | 1017.3 |
| 20260507074018 | 47 | 219 | 9.0 | 17.0 | 0.00 | 0.00 | 0.00 | 52 | 1017.2 |
| 20260507073520 | 47 | 246 | 8.0 | 17.0 | 0.00 | 0.00 | 0.00 | 55 | 1017.1 |
| 20260507073106 | 47 | 250 | 10.0 | 17.0 | 0.00 | 0.00 | 0.00 | 57 | 1017.0 |
| 20260507072517 | 47 | 242 | 10.0 | 19.0 | 0.00 | 0.00 | 0.00 | 55 | 1016.8 |
| 20260507072020 | 47 | 237 | 12.0 | 20.0 | 0.00 | 0.00 | 0.00 | 57 | 1017.0 |
| 20260507071553 | 47 | 235 | 10.0 | 20.0 | 0.00 | 0.00 | 0.00 | 57 | 1016.8 |
| 20260507071018 | 47 | 253 | 12.0 | 19.0 | 0.00 | 0.00 | 0.00 | 57 | 1016.5 |
| 20260507070044 | 48 | 247 | 12.0 | 20.0 | 0.00 | 0.00 | 0.00 | 56 | 1016.6 |
| 20260507065515 | 48 | 246 | 11.0 | 20.0 | 0.00 | 0.00 | 0.00 | 57 | 1016.9 |
| 20260507065017 | 48 | 261 | 11.0 | 18.0 | 0.00 | 0.00 | 0.00 | 56 | 1016.9 |
| 20260507064639 | 48 | 242 | 10.0 | 16.0 | 0.00 | 0.00 | 0.00 | 56 | 1016.8 |
| 20260507064144 | 48 | 238 | 10.0 | 16.0 | 0.00 | 0.00 | 0.00 | 56 | 1017.4 |
| 20260507063520 | 48 | 224 | 6.0 | 15.0 | 0.00 | 0.00 | 0.00 | 56 | 1017.4 |
| 20260507063041 | 48 | 242 | 7.0 | 16.0 | 0.00 | 0.00 | 0.00 | 55 | 1017.3 |
| 20260507062521 | 49 | 240 | 10.0 | 19.0 | 0.00 | 0.00 | 0.00 | 53 | 1016.8 |
| 20260507062345 | 49 | 236 | 13.0 | 26.0 | 0.00 | 0.00 | 0.00 | 51 | 1016.6 |
| 20260507061554 | 49 | 220 | 13.0 | 26.0 | 0.00 | 0.00 | 0.00 | 52 | 1016.4 |
| 20260507061016 | 49 | 248 | 12.0 | 15.0 | 0.00 | 0.00 | 0.00 | 52 | 1016.5 |
| 20260507060515 | 49 | 232 | 11.0 | 18.0 | 0.00 | 0.00 | 0.00 | 52 | 1016.8 |
| 20260507060116 | 50 | 229 | 12.0 | 17.0 | 0.00 | 0.00 | 0.00 | 52 | 1016.8 |
| 20260507055518 | 50 | 212 | 13.0 | 17.0 | 0.00 | 0.00 | 0.00 | 51 | 1016.7 |
| 20260507055018 | 50 | 229 | 11.0 | 17.0 | 0.00 | 0.00 | 0.00 | 49 | 1017.2 |
| 20260507054609 | 50 | 248 | 8.0 | 15.0 | 0.00 | 0.00 | 0.00 | 53 | 1017.3 |
| 20260507054015 | 50 | 263 | 9.0 | 15.0 | 0.00 | 0.00 | 0.00 | 52 | 1017.1 |
| 20260507053515 | 49 | 247 | 8.0 | 14.0 | 0.00 | 0.00 | 0.00 | 54 | 1017.3 |
| 20260507053111 | 50 | 255 | 10.0 | 14.0 | 0.00 | 0.00 | 0.00 | 52 | 1017.1 |
| 20260507052518 | 50 | 241 | 9.0 | 14.0 | 0.00 | 0.00 | 0.00 | 54 | 1017.0 |
| 20260507052016 | 50 | 236 | 9.0 | 16.0 | 0.00 | 0.00 | 0.00 | 53 | 1016.9 |
| 20260507051616 | 50 | 244 | 10.0 | 20.0 | 0.00 | 0.00 | 0.00 | 55 | 1016.6 |
| 20260507051015 | 50 | 232 | 10.0 | 20.0 | 0.00 | 0.00 | 0.00 | 54 | 1016.3 |
| 20260507050517 | 50 | 267 | 13.0 | 21.0 | 0.00 | 0.00 | 0.00 | 54 | 1016.2 |
| 20260507050110 | 50 | 202 | 14.0 | 23.0 | 0.00 | 0.00 | 0.00 | 53 | 1016.2 |
| 20260507045520 | 50 | 243 | 16.0 | 24.0 | 0.00 | 0.00 | 0.00 | 54 | 1016.1 |
| 20260507045022 | 50 | 224 | 17.0 | 24.0 | 0.00 | 0.00 | 0.00 | 52 | 1016.0 |
| 20260507044600 | 51 | 238 | 16.0 | 24.0 | 0.00 | 0.00 | 0.00 | 52 | 1016.4 |
| 20260507044016 | 51 | 252 | 13.0 | 22.0 | 0.00 | 0.00 | 0.00 | 52 | 1016.7 |
| 20260507043515 | 51 | 237 | 13.0 | 22.0 | 0.00 | 0.00 | 0.00 | 52 | 1016.9 |
| 20260507043055 | 51 | 245 | 11.0 | 20.0 | 0.00 | 0.00 | 0.00 | 52 | 1016.8 |
| 20260507042531 | 51 | 241 | 10.0 | 15.0 | 0.00 | 0.00 | 0.00 | 51 | 1017.0 |
| 20260507042017 | 51 | 223 | 10.0 | 15.0 | 0.00 | 0.00 | 0.00 | 50 | 1016.8 |
| 20260507041540 | 51 | 244 | 10.0 | 16.0 | 0.00 | 0.00 | 0.00 | 49 | 1017.1 |
| 20260507041018 | 51 | 267 | 8.0 | 16.0 | 0.00 | 0.00 | 0.00 | 49 | 1017.1 |
| 20260507040516 | 51 | 269 | 9.0 | 16.0 | 0.00 | 0.00 | 0.00 | 50 | 1017.3 |
| 20260507040354 | 52 | 221 | 8.0 | 13.0 | 0.00 | 0.00 | 0.00 | 49 | 1017.4 |
| 20260507035518 | 52 | 242 | 9.0 | 13.0 | 0.00 | 0.00 | 0.00 | 49 | 1017.5 |
| 20260507035022 | 52 | 259 | 10.0 | 15.0 | 0.00 | 0.00 | 0.00 | 47 | 1017.4 |
| 20260507034555 | 52 | 246 | 10.0 | 16.0 | 0.00 | 0.00 | 0.00 | 47 | 1017.3 |
| 20260507034024 | 52 | 259 | 11.0 | 16.0 | 0.00 | 0.00 | 0.00 | 48 | 1017.2 |
| 20260507033526 | 53 | 252 | 10.0 | 15.0 | 0.00 | 0.00 | 0.00 | 47 | 1017.3 |
| 20260507033058 | 53 | 237 | 10.0 | 17.0 | 0.00 | 0.00 | 0.00 | 46 | 1017.1 |
| 20260507032526 | 53 | 232 | 10.0 | 17.0 | 0.00 | 0.00 | 0.00 | 45 | 1017.1 |
| 20260507032020 | 53 | 216 | 11.0 | 17.0 | 0.00 | 0.00 | 0.00 | 45 | 1017.1 |
| 20260507031841 | 54 | 225 | 11.0 | 17.0 | 0.00 | 0.00 | 0.00 | 44 | 1017.0 |
| 20260507031015 | 54 | 211 | 10.0 | 17.0 | 0.00 | 0.00 | 0.00 | 44 | 1016.9 |
| 20260507030518 | 54 | 230 | 10.0 | 16.0 | 0.00 | 0.00 | 0.00 | 44 | 1017.0 |
| 20260507030341 | 54 | 255 | 11.0 | 16.0 | 0.00 | 0.00 | 0.00 | 43 | 1016.9 |
| 20260507025516 | 54 | 236 | 10.0 | 16.0 | 0.00 | 0.00 | 0.00 | 43 | 1016.9 |
| 20260507025015 | 55 | 269 | 10.0 | 14.0 | 0.00 | 0.00 | 0.00 | 43 | 1017.1 |
| 20260507024554 | 55 | 246 | 9.0 | 15.0 | 0.00 | 0.00 | 0.00 | 43 | 1017.0 |
| 20260507024017 | 55 | 238 | 10.0 | 16.0 | 0.00 | 0.00 | 0.00 | 42 | 1017.0 |
| 20260507023631 | 55 | 225 | 11.0 | 16.0 | 0.00 | 0.00 | 0.00 | 41 | 1016.8 |
| 20260507023047 | 55 | 234 | 9.0 | 15.0 | 0.00 | 0.00 | 0.00 | 43 | 1017.1 |
| 20260507022516 | 56 | 241 | 10.0 | 15.0 | 0.00 | 0.00 | 0.00 | 42 | 1017.1 |
| 20260507022015 | 56 | 214 | 10.0 | 14.0 | 0.00 | 0.00 | 0.00 | 42 | 1017.1 |
| 20260507021543 | 56 | 257 | 9.0 | 12.0 | 0.00 | 0.00 | 0.00 | 42 | 1017.1 |
| 20260507021016 | 55 | 215 | 9.0 | 12.0 | 0.00 | 0.00 | 0.00 | 42 | 1017.1 |
| 20260507020516 | 56 | 250 | 8.0 | 14.0 | 0.00 | 0.00 | 0.00 | 42 | 1017.4 |
| 20260507020100 | 56 | 211 | 9.0 | 14.0 | 0.00 | 0.00 | 0.00 | 42 | 1017.6 |
| 20260507015528 | 56 | 233 | 8.0 | 13.0 | 0.00 | 0.00 | 0.00 | 41 | 1017.6 |
| 20260507015015 | 57 | 224 | 8.0 | 13.0 | 0.00 | 0.00 | 0.00 | 41 | 1017.6 |
| 20260507014549 | 57 | 229 | 9.0 | 13.0 | 0.00 | 0.00 | 0.00 | 40 | 1017.6 |
| 20260507014016 | 57 | 232 | 8.0 | 13.0 | 0.00 | 0.00 | 0.00 | 40 | 1017.5 |
| 20260507013521 | 56 | 205 | 9.0 | 14.0 | 0.00 | 0.00 | 0.00 | 41 | 1017.6 |
| 20260507013050 | 57 | 234 | 9.0 | 14.0 | 0.00 | 0.00 | 0.00 | 41 | 1017.8 |
| 20260507012521 | 57 | 248 | 8.0 | 14.0 | 0.00 | 0.00 | 0.00 | 41 | 1017.6 |
| 20260507012018 | 57 | 237 | 8.0 | 13.0 | 0.00 | 0.00 | 0.00 | 39 | 1017.8 |
| 20260507011546 | 57 | 235 | 9.0 | 14.0 | 0.00 | 0.00 | 0.00 | 40 | 1017.6 |
| 20260507011018 | 58 | 242 | 8.0 | 16.0 | 0.00 | 0.00 | 0.00 | 40 | 1017.8 |
| 20260507010515 | 58 | 225 | 9.0 | 16.0 | 0.00 | 0.00 | 0.00 | 39 | 1017.6 |
| 20260507010116 | 58 | 252 | 10.0 | 15.0 | 0.00 | 0.00 | 0.00 | 40 | 1017.6 |
| 20260507005516 | 59 | 245 | 9.0 | 14.0 | 0.00 | 0.00 | 0.00 | 38 | 1017.7 |
| 20260507005202 | 60 | 251 | 7.0 | 13.0 | 0.00 | 0.00 | 0.00 | 37 | 1017.8 |
| 20260507004553 | 60 | 237 | 8.0 | 13.0 | 0.00 | 0.00 | 0.00 | 37 | 1017.8 |
| 20260507004016 | 60 | 205 | 7.0 | 12.0 | 0.00 | 0.00 | 0.00 | 38 | 1017.9 |
| 20260507003522 | 59 | 244 | 7.0 | 13.0 | 0.00 | 0.00 | 0.00 | 38 | 1017.9 |
| 20260507003046 | 60 | 237 | 7.0 | 13.0 | 0.00 | 0.00 | 0.00 | 36 | 1017.8 |
| 20260507002518 | 61 | 201 | 6.0 | 12.0 | 0.00 | 0.00 | 0.00 | 35 | 1017.8 |
| 20260507002021 | 61 | 229 | 5.0 | 12.0 | 0.00 | 0.00 | 0.00 | 35 | 1017.9 |
| 20260507001608 | 61 | 236 | 5.0 | 9.0 | 0.00 | 0.00 | 0.00 | 35 | 1017.8 |
| 20260507001017 | 61 | 232 | 4.0 | 12.0 | 0.00 | 0.00 | 0.00 | 35 | 1017.8 |
| 20260507000518 | 61 | 192 | 6.0 | 12.0 | 0.00 | 0.00 | 0.00 | 36 | 1017.8 |
| 20260506235517 | 61 | 181 | 4.0 | 8.0 | 0.00 | 0.00 | 0.00 | 36 | 1017.9 |
| 20260506235014 | 61 | 230 | 3.0 | 8.0 | 0.00 | 0.00 | 0.00 | 36 | 1017.9 |
| 20260506234555 | 61 | 203 | 5.0 | 9.0 | 0.00 | 0.00 | 0.00 | 36 | 1017.9 |
| 20260506234016 | 61 | 232 | 5.0 | 9.0 | 0.00 | 0.00 | 0.00 | 36 | 1017.9 |
| 20260506233517 | 61 | 248 | 4.0 | 8.0 | 0.00 | 0.00 | 0.00 | 35 | 1018.1 |
| 20260506233047 | 61 | 249 | 4.0 | 8.0 | 0.00 | 0.00 | 0.00 | 37 | 1018.1 |
| 20260506232515 | 61 | 246 | 4.0 | 11.0 | 0.00 | 0.00 | 0.00 | 35 | 1018.2 |
| 20260506232014 | 61 | 249 | 5.0 | 11.0 | 0.00 | 0.00 | 0.00 | 37 | 1018.2 |
| 20260506231604 | 61 | 213 | 6.0 | 11.0 | 0.00 | 0.00 | 0.00 | 36 | 1018.2 |
| 20260506231017 | 62 | 217 | 2.0 | 11.0 | 0.00 | 0.00 | 0.00 | 37 | 1018.3 |
| 20260506230515 | 62 | 213 | 3.0 | 11.0 | 0.00 | 0.00 | 0.00 | 37 | 1018.2 |
| 20260506230110 | 62 | 182 | 5.0 | 11.0 | 0.00 | 0.00 | 0.00 | 36 | 1018.2 |
| 20260506225515 | 62 | 205 | 4.0 | 9.0 | 0.00 | 0.00 | 0.00 | 37 | 1018.3 |
| 20260506225015 | 63 | 165 | 4.0 | 9.0 | 0.00 | 0.00 | 0.00 | 36 | 1018.4 |
| 20260506224610 | 63 | 200 | 4.0 | 10.0 | 0.00 | 0.00 | 0.00 | 37 | 1018.4 |
| 20260506224017 | 63 | 198 | 4.0 | 11.0 | 0.00 | 0.00 | 0.00 | 37 | 1018.5 |
| 20260506223515 | 64 | 225 | 6.0 | 12.0 | 0.00 | 0.00 | 0.00 | 36 | 1018.4 |
| 20260506223041 | 65 | 219 | 3.0 | 9.0 | 0.00 | 0.00 | 0.00 | 37 | 1018.5 |
| 20260506222515 | 65 | 257 | 4.0 | 8.0 | 0.00 | 0.00 | 0.00 | 36 | 1018.5 |
| 20260506222018 | 65 | 256 | 4.0 | 12.0 | 0.00 | 0.00 | 0.00 | 35 | 1018.7 |
| 20260506221546 | 65 | 221 | 4.0 | 12.0 | 0.00 | 0.00 | 0.00 | 35 | 1018.7 |
| 20260506221014 | 65 | 200 | 4.0 | 8.0 | 0.00 | 0.00 | 0.00 | 36 | 1018.8 |
| 20260506220517 | 65 | 238 | 3.0 | 9.0 | 0.00 | 0.00 | 0.00 | 36 | 1018.8 |
| 20260506220043 | 65 | 209 | 2.0 | 9.0 | 0.00 | 0.00 | 0.00 | 36 | 1018.8 |
| 20260506215531 | 66 | 175 | 2.0 | 8.0 | 0.00 | 0.00 | 0.00 | 35 | 1018.9 |
| 20260506215016 | 66 | 229 | 4.0 | 8.0 | 0.00 | 0.00 | 0.00 | 36 | 1018.8 |
| 20260506214553 | 66 | 178 | 2.0 | 9.0 | 0.00 | 0.00 | 0.00 | 37 | 1018.8 |
| 20260506214017 | 66 | 232 | 4.0 | 10.0 | 0.00 | 0.00 | 0.00 | 36 | 1018.7 |
| 20260506213517 | 66 | 211 | 3.0 | 10.0 | 0.00 | 0.00 | 0.00 | 36 | 1018.7 |
| 20260506213111 | 67 | 186 | 3.0 | 8.0 | 0.00 | 0.00 | 0.00 | 35 | 1018.8 |
| 20260506212515 | 67 | 203 | 2.0 | 9.0 | 0.00 | 0.00 | 0.00 | 36 | 1018.8 |
| 20260506212020 | 66 | 226 | 2.0 | 9.0 | 0.00 | 0.00 | 0.00 | 38 | 1018.8 |
| 20260506211553 | 66 | 157 | 3.0 | 7.0 | 0.00 | 0.00 | 0.00 | 38 | 1018.8 |
| 20260506211016 | 67 | 184 | 2.0 | 6.0 | 0.00 | 0.00 | 0.00 | 37 | 1018.8 |
| 20260506210517 | 67 | 213 | 2.0 | 5.0 | 0.00 | 0.00 | 0.00 | 37 | 1018.7 |
| 20260506210105 | 67 | 298 | 1.0 | 8.0 | 0.00 | 0.00 | 0.00 | 38 | 1018.8 |
| 20260506205514 | 67 | 240 | 1.0 | 5.0 | 0.00 | 0.00 | 0.00 | 38 | 1018.8 |
| 20260506205015 | 67 | 205 | 2.0 | 6.0 | 0.00 | 0.00 | 0.00 | 38 | 1018.9 |
| 20260506204606 | 67 | 238 | 2.0 | 6.0 | 0.00 | 0.00 | 0.00 | 37 | 1018.9 |
| 20260506204015 | 67 | 233 | 1.0 | 7.0 | 0.00 | 0.00 | 0.00 | 37 | 1019.0 |
| 20260506203520 | 67 | 252 | 3.0 | 8.0 | 0.00 | 0.00 | 0.00 | 37 | 1019.1 |
| 20260506203105 | 68 | 142 | 2.0 | 7.0 | 0.00 | 0.00 | 0.00 | 36 | 1018.9 |
| 20260506202517 | 68 | 221 | 3.0 | 7.0 | 0.00 | 0.00 | 0.00 | 35 | 1019.0 |
| 20260506202019 | 69 | 238 | 2.0 | 7.0 | 0.00 | 0.00 | 0.00 | 34 | 1018.9 |
| 20260506201558 | 70 | 226 | 2.0 | 6.0 | 0.00 | 0.00 | 0.00 | 36 | 1019.0 |
| 20260506201015 | 70 | 196 | 2.0 | 9.0 | 0.00 | 0.00 | 0.00 | 37 | 1018.9 |
| 20260506200515 | 70 | 81 | 2.0 | 6.0 | 0.00 | 0.00 | 0.00 | 38 | 1018.9 |
| 20260506200110 | 69 | 323 | 1.0 | 5.0 | 0.00 | 0.00 | 0.00 | 36 | 1019.0 |
| 20260506195516 | 69 | 192 | 3.0 | 5.0 | 0.00 | 0.00 | 0.00 | 38 | 1019.1 |
| 20260506195015 | 68 | 217 | 1.0 | 6.0 | 0.00 | 0.00 | 0.00 | 40 | 1018.8 |
| 20260506194606 | 68 | 69 | 2.0 | 10.0 | 0.00 | 0.00 | 0.00 | 41 | 1018.9 |
| 20260506194020 | 69 | 150 | 3.0 | 10.0 | 0.00 | 0.00 | 0.00 | 39 | 1018.9 |
| 20260506193515 | 70 | 127 | 3.0 | 7.0 | 0.00 | 0.00 | 0.00 | 38 | 1019.1 |
| 20260506193121 | 69 | 306 | 1.0 | 7.0 | 0.00 | 0.00 | 0.00 | 40 | 1019.1 |
| 20260506192519 | 70 | 245 | 2.0 | 7.0 | 0.00 | 0.00 | 0.00 | 36 | 1018.9 |
| 20260506192026 | 70 | 232 | 3.0 | 8.0 | 0.00 | 0.00 | 0.00 | 34 | 1018.9 |
| 20260506191635 | 70 | 112 | 2.0 | 8.0 | 0.00 | 0.00 | 0.00 | 40 | 1019.2 |
| 20260506191025 | 70 | 332 | 2.0 | 8.0 | 0.00 | 0.00 | 0.00 | 36 | 1019.1 |
| 20260506190516 | 69 | 219 | 3.0 | 9.0 | 0.00 | 0.00 | 0.00 | 37 | 1019.0 |
| 20260506190053 | 69 | 15 | 2.0 | 11.0 | 0.00 | 0.00 | 0.00 | 39 | 1019.0 |
| 20260506185515 | 69 | 277 | 3.0 | 11.0 | 0.00 | 0.00 | 0.00 | 37 | 1019.1 |
| 20260506185017 | 69 | 352 | 2.0 | 9.0 | 0.00 | 0.00 | 0.00 | 37 | 1019.3 |
| 20260506184605 | 69 | 308 | 2.0 | 5.0 | 0.00 | 0.00 | 0.00 | 38 | 1019.2 |
| 20260506184015 | 69 | 85 | 2.0 | 10.0 | 0.00 | 0.00 | 0.00 | 41 | 1019.3 |
| 20260506183513 | 68 | 52 | 3.0 | 11.0 | 0.00 | 0.00 | 0.00 | 41 | 1019.1 |
| 20260506183332 | 69 | 107 | 2.0 | 6.0 | 0.00 | 0.00 | 0.00 | 38 | 1019.1 |
| 20260506182515 | 68 | 213 | 2.0 | 12.0 | 0.00 | 0.00 | 0.00 | 38 | 1018.9 |
| 20260506182020 | 68 | 119 | 3.0 | 12.0 | 0.00 | 0.00 | 0.00 | 40 | 1018.9 |
| 20260506181548 | 69 | 76 | 1.0 | 7.0 | 0.00 | 0.00 | 0.00 | 39 | 1018.9 |
| 20260506181016 | 68 | 15 | 2.0 | 7.0 | 0.00 | 0.00 | 0.00 | 35 | 1018.9 |
| 20260506180519 | 67 | 24 | 3.0 | 8.0 | 0.00 | 0.00 | 0.00 | 36 | 1018.8 |
| 20260506180043 | 67 | 98 | 2.0 | 8.0 | 0.00 | 0.00 | 0.00 | 42 | 1019.1 |
| 20260506175516 | 66 | 24 | 4.0 | 8.0 | 0.00 | 0.00 | 0.00 | 39 | 1019.1 |
| 20260506175018 | 66 | 50 | 2.0 | 7.0 | 0.00 | 0.00 | 0.00 | 39 | 1019.2 |
| 20260506174831 | 66 | 213 | 2.0 | 8.0 | 0.00 | 0.00 | 0.00 | 35 | 1019.1 |
| 20260506174016 | 66 | 300 | 3.0 | 9.0 | 0.00 | 0.00 | 0.00 | 36 | 1019.3 |
| 20260506173515 | 66 | 203 | 4.0 | 9.0 | 0.00 | 0.00 | 0.00 | 35 | 1019.2 |
| 20260506173046 | 66 | 338 | 1.0 | 8.0 | 0.00 | 0.00 | 0.00 | 36 | 1019.2 |
| 20260506172515 | 65 | 194 | 4.0 | 8.0 | 0.00 | 0.00 | 0.00 | 35 | 1019.1 |
| 20260506172013 | 65 | 174 | 2.0 | 8.0 | 0.00 | 0.00 | 0.00 | 38 | 1018.9 |
| 20260506171557 | 64 | 216 | 3.0 | 9.0 | 0.00 | 0.00 | 0.00 | 36 | 1018.9 |
| 20260506171015 | 64 | 277 | 5.0 | 9.0 | 0.00 | 0.00 | 0.00 | 38 | 1019.0 |
| 20260506170720 | 64 | 217 | 3.0 | 10.0 | 0.00 | 0.00 | 0.00 | 35 | 1018.9 |
| 20260506170108 | 64 | 205 | 4.0 | 10.0 | 0.00 | 0.00 | 0.00 | 37 | 1019.2 |
| 20260506165516 | 64 | 239 | 4.0 | 10.0 | 0.00 | 0.00 | 0.00 | 34 | 1019.2 |
| 20260506165015 | 65 | 223 | 2.0 | 5.0 | 0.00 | 0.00 | 0.00 | 36 | 1019.1 |
| 20260506164601 | 64 | 9 | 1.0 | 7.0 | 0.00 | 0.00 | 0.00 | 37 | 1018.9 |
| 20260506164019 | 63 | 222 | 4.0 | 9.0 | 0.00 | 0.00 | 0.00 | 36 | 1018.9 |
| 20260506163517 | 63 | 261 | 5.0 | 9.0 | 0.00 | 0.00 | 0.00 | 35 | 1019.1 |
| 20260506163101 | 63 | 214 | 4.0 | 9.0 | 0.00 | 0.00 | 0.00 | 36 | 1019.1 |
| 20260506162516 | 63 | 293 | 4.0 | 9.0 | 0.00 | 0.00 | 0.00 | 37 | 1018.9 |
| 20260506162014 | 62 | 200 | 3.0 | 9.0 | 0.00 | 0.00 | 0.00 | 40 | 1018.9 |
| 20260506161829 | 62 | 217 | 4.0 | 9.0 | 0.00 | 0.00 | 0.00 | 37 | 1018.8 |
| 20260506161016 | 62 | 227 | 4.0 | 11.0 | 0.00 | 0.00 | 0.00 | 39 | 1018.8 |
| 20260506160515 | 62 | 256 | 5.0 | 11.0 | 0.00 | 0.00 | 0.00 | 38 | 1018.8 |
| 20260506160328 | 62 | 222 | 4.0 | 8.0 | 0.00 | 0.00 | 0.00 | 41 | 1018.8 |
| 20260506155515 | 61 | 235 | 4.0 | 8.0 | 0.00 | 0.00 | 0.00 | 41 | 1018.8 |
| 20260506155016 | 61 | 217 | 3.0 | 7.0 | 0.00 | 0.00 | 0.00 | 40 | 1018.7 |
| 20260506154547 | 61 | 217 | 3.0 | 8.0 | 0.00 | 0.00 | 0.00 | 40 | 1018.7 |
| 20260506154016 | 61 | 228 | 4.0 | 10.0 | 0.00 | 0.00 | 0.00 | 40 | 1018.8 |
| 20260506153517 | 60 | 219 | 4.0 | 10.0 | 0.00 | 0.00 | 0.00 | 39 | 1018.6 |
| 20260506153053 | 60 | 227 | 5.0 | 9.0 | 0.00 | 0.00 | 0.00 | 42 | 1018.6 |
| 20260506152520 | 59 | 245 | 5.0 | 8.0 | 0.00 | 0.00 | 0.00 | 41 | 1018.6 |
| 20260506152014 | 59 | 243 | 6.0 | 10.0 | 0.00 | 0.00 | 0.00 | 42 | 1018.6 |
| 20260506151550 | 58 | 246 | 7.0 | 10.0 | 0.00 | 0.00 | 0.00 | 41 | 1018.6 |
| 20260506151014 | 58 | 235 | 7.0 | 10.0 | 0.00 | 0.00 | 0.00 | 43 | 1018.6 |
| 20260506150513 | 58 | 226 | 6.0 | 9.0 | 0.00 | 0.00 | 0.00 | 43 | 1018.7 |
| 20260506150053 | 57 | 271 | 7.0 | 12.0 | 0.00 | 0.00 | 0.00 | 44 | 1018.7 |
| 20260506145510 | 57 | 226 | 7.0 | 12.0 | 0.00 | 0.00 | 0.00 | 43 | 1018.6 |
| 20260506145016 | 57 | 227 | 7.0 | 10.0 | 0.00 | 0.00 | 0.00 | 44 | 1018.4 |
| 20260506144559 | 57 | 252 | 7.0 | 12.0 | 0.00 | 0.00 | 0.00 | 44 | 1018.6 |
| 20260506144023 | 57 | 229 | 7.0 | 12.0 | 0.00 | 0.00 | 0.00 | 44 | 1018.6 |
| 20260506143517 | 57 | 224 | 7.0 | 16.0 | 0.00 | 0.00 | 0.00 | 43 | 1018.6 |
| 20260506143050 | 56 | 259 | 9.0 | 16.0 | 0.00 | 0.00 | 0.00 | 44 | 1018.4 |
| 20260506142515 | 56 | 245 | 8.0 | 13.0 | 0.00 | 0.00 | 0.00 | 43 | 1018.4 |
| 20260506142016 | 56 | 232 | 8.0 | 10.0 | 0.00 | 0.00 | 0.00 | 43 | 1018.3 |
| 20260506141550 | 56 | 234 | 7.0 | 11.0 | 0.00 | 0.00 | 0.00 | 43 | 1018.3 |
| 20260506141019 | 56 | 232 | 8.0 | 12.0 | 0.00 | 0.00 | 0.00 | 44 | 1018.4 |
| 20260506140516 | 55 | 265 | 8.0 | 12.0 | 0.00 | 0.00 | 0.00 | 44 | 1018.2 |
| 20260506140046 | 55 | 260 | 8.0 | 12.0 | 0.00 | 0.00 | 0.00 | 45 | 1018.2 |
| 20260506135517 | 55 | 234 | 8.0 | 12.0 | 0.00 | 0.00 | 0.00 | 45 | 1018.3 |